Wind_Speed
27 26 25 26 25 25 24 22 20 18 16 15 15 15 15 15 14 14 14 15 15 16 16 16 16 16 16 17 16 17 17 17 18 17 17 17 17 17 17 15 15 16 16 17
27 27 26 26 26 26 25 23 21 20 18 16 15 15 15 14 14 14 14 14 15 15 16 16 16 17 17 17 18 18 18 18 18 18 19 18 18 18 18 17 16 16 16 16
27 28 28 29 27 26 25 23 22 21 19 17 16 15 14 14 15 15 14 14 15 15 15 16 16 16 17 18 18 18 19 18 18 19 19 19 20 20 19 18 18 17 17 17
28 30 31 29 27 26 25 24 22 21 20 19 17 16 16 15 15 14 15 15 15 16 16 16 16 16 16 17 17 18 18 18 18 20 20 21 21 21 20 20 19 18 18 18
29 29 29 28 27 26 25 23 22 22 21 20 18 17 16 16 15 15 15 15 16 16 15 16 16 17 16 17 17 18 19 18 19 19 20 21 21 21 21 20 20 20 19 19
31 29 29 28 26 25 24 23 22 22 21 20 19 18 18 17 16 15 16 15 15 15 15 15 16 17 18 17 17 18 19 20 20 20 20 20 20 20 20 20 21 21 21 21
30 29 28 27 25 24 25 23 22 22 22 22 21 20 19 18 17 16 16 16 15 16 16 16 16 16 16 16 17 17 18 18 19 19 20 20 20 20 20 20 20 20 20 20
30 28 29 27 26 26 24 22 21 22 23 23 21 20 19 19 18 18 17 17 17 17 16 16 16 16 16 16 16 16 17 17 18 18 19 19 19 20 20 19 19 19 20 21
31 30 28 27 26 25 23 23 22 22 22 22 22 21 20 19 19 19 18 18 18 17 17 17 17 16 16 16 16 16 17 17 17 17 19 19 20 20 20 20 21 22 22 22
29 29 27 27 26 25 24 23 22 22 22 21 21 21 21 21 20 20 19 20 19 18 18 18 17 17 18 18 18 18 18 18 18 18 19 19 20 21 21 22 23 24 24 24
28 27 27 27 26 26 26 25 23 22 21 21 21 20 21 21 22 22 21 20 20 20 19 19 20 19 19 19 18 19 19 18 19 19 20 20 21 22 22 23 23 24 25 25
29 28 26 25 26 26 26 25 24 23 22 22 21 21 21 21 21 21 21 21 21 21 21 20 20 20 20 21 20 19 19 19 19 20 20 21 21 22 23 23 24 24 26 26
28 28 27 26 26 25 25 25 24 23 22 22 21 21 21 21 21 20 20 20 21 21 21 21 21 20 20 21 21 21 21 20 20 20 21 21 22 23 23 24 25 25 26 27
28 28 27 27 27 26 26 25 25 24 23 23 22 22 22 22 21 21 21 21 20 21 21 22 21 22 21 21 21 21 21 21 21 22 22 22 23 24 25 25 26 26 27 29
27 27 27 27 27 26 26 26 25 24 24 24 23 23 23 22 21 21 21 20 20 20 20 21 22 22 22 22 22 21 21 22 22 22 23 24 25 25 26 26 27 28 29 30
26 26 26 27 26 25 25 25 24 24 24 23 23 23 23 23 22 21 21 20 20 20 19 19 20 20 20 21 22 22 22 22 23 24 24 25 25 26 27 28 28 29 30 31
25 26 26 25 25 25 24 24 23 23 22 22 22 21 21 21 21 21 21 21 20 21 20 20 20 20 21 21 22 22 23 23 23 24 25 25 26 27 28 29 30 32 32 33
24 25 24 24 24 24 23 23 22 22 22 23 22 21 21 20 20 21 21 20 20 20 20 20 20 20 21 22 23 23 24 24 24 25 26 26 27 28 29 30 31 32 33 34
23 23 22 23 23 22 21 21 21 21 20 21 21 21 21 21 20 20 20 20 20 19 19 19 19 19 21 22 24 24 25 25 25 26 26 27 28 29 30 31 32 33 34 35
22 22 22 22 22 22 21 20 19 18 18 18 19 20 20 19 19 19 19 19 19 19 20 19 19 20 21 22 23 24 24 25 25 26 26 27 28 29 30 31 32 33 33 33
22 21 20 20 20 19 19 18 18 18 17 18 18 18 18 18 17 17 17 17 17 18 19 19 18 19 19 20 22 23 24 25 25 26 27 27 28 29 30 31 32 32 33 34
21 20 20 19 18 18 18 17 17 16 16 16 16 16 15 15 15 15 16 16 16 16 17 18 18 18 19 20 21 22 23 25 26 27 27 28 28 29 30 31 31 32 33 34
20 19 19 18 18 18 17 16 16 15 16 15 14 14 14 14 14 13 14 14 15 15 16 17 18 18 19 20 21 22 23 25 26 27 27 28 28 29 30 31 31 32 33 34
19 19 19 18 18 17 16 15 14 15 15 14 14 13 13 13 13 13 14 14 14 15 16 17 17 18 19 21 21 22 23 24 26 26 27 28 28 29 29 30 31 32 33 34
17 17 17 17 17 15 15 14 13 13 13 13 13 13 13 13 13 14 14 14 15 15 16 17 18 19 20 21 21 22 22 23 24 25 26 27 28 29 30 31 31 32 34 35
15 15 15 15 14 13 13 13 13 13 12 12 12 11 11 12 13 14 14 15 16 16 17 17 17 18 19 19 20 21 21 22 23 25 26 27 28 29 31 32 33 34 35 35
14 14 13 13 13 13 13 13 12 12 11 11 11 10 10 10 11 12 12 13 13 13 14 15 15 16 18 20 21 22 23 24 25 26 27 28 29 30 31 32 32 33 34 34
Wind_Direction
213 217 222 223 222 223 226 226 229 236 237 238 240 243 247 252 252 250 248 246 244 243 242 240 240 241 243 244 244 242 242 241 238 238 240 242 241 239 239 240 244 245 244 241
217 218 219 222 223 225 227 227 228 232 236 236 240 240 245 250 250 248 248 245 242 240 240 239 239 240 243 245 244 242 242 240 237 239 241 242 240 240 241 242 246 247 246 244
217 218 218 220 221 224 226 227 229 233 234 234 237 240 243 245 247 245 242 243 240 237 238 239 240 242 244 245 244 241 239 239 239 241 241 240 240 240 243 245 246 245 246 246
216 218 220 220 221 223 226 226 227 230 230 231 235 241 242 244 245 242 241 242 237 234 238 240 242 244 244 245 244 241 238 238 240 242 242 241 240 240 244 244 245 244 246 249
216 220 220 222 221 222 225 225 226 227 227 231 235 239 241 243 244 245 244 242 237 236 239 244 245 244 243 246 246 242 240 242 244 243 241 239 239 240 242 243 243 244 246 246
216 218 222 223 221 222 226 226 224 224 225 228 232 238 240 243 244 245 242 240 238 240 244 247 247 244 244 248 248 246 245 245 245 242 239 239 240 240 241 243 245 245 246 248
217 221 223 221 218 220 226 226 225 225 227 230 233 237 241 241 241 243 240 241 243 247 248 250 247 243 245 248 247 246 247 246 244 243 242 241 240 239 240 244 247 247 247 249
218 220 222 219 217 219 225 225 225 227 230 231 233 237 239 239 239 239 240 244 247 249 249 249 246 244 248 247 247 246 245 245 244 244 244 243 241 240 242 244 246 248 250 251
217 220 222 219 219 220 224 225 226 228 231 231 233 236 238 238 238 240 241 245 246 248 248 246 246 247 248 247 246 245 242 242 243 245 245 244 242 242 243 246 249 252 254 255
218 220 219 218 217 219 223 225 228 229 230 233 235 236 238 237 238 242 243 246 245 246 247 246 245 245 246 247 246 244 245 246 247 247 246 246 246 247 249 251 253 255 256 258
219 219 219 219 220 221 224 226 228 229 231 233 233 234 237 238 240 243 245 245 246 249 250 249 248 248 248 247 246 247 248 249 249 248 247 248 250 252 253 255 257 258 259 260
216 218 219 219 220 221 224 227 228 229 231 233 235 236 236 238 240 243 244 245 245 247 251 252 253 251 250 249 250 249 249 250 249 248 249 251 253 254 256 257 258 260 261 261
215 216 217 218 220 221 222 224 227 229 232 233 236 237 237 239 241 242 244 246 246 248 251 253 254 253 251 250 250 249 248 250 250 249 251 255 256 257 258 259 261 263 265 266
213 215 217 219 220 221 223 226 229 231 235 236 237 238 237 239 242 244 245 247 249 252 254 253 253 253 252 250 248 248 248 249 250 251 253 256 259 260 261 263 264 265 266 268
214 216 217 217 219 222 224 227 229 233 236 238 237 237 237 240 243 246 247 248 251 254 255 254 252 252 252 248 247 248 249 249 250 253 256 259 262 263 264 266 268 268 268 269
213 215 215 216 219 223 225 227 230 232 234 235 236 237 238 239 242 244 246 246 247 250 253 255 252 250 249 249 248 248 250 251 254 257 259 260 262 265 267 269 270 271 272 273
210 211 213 215 219 223 225 228 230 230 232 235 234 234 236 238 241 243 244 244 247 250 252 255 254 251 250 248 249 250 252 254 256 258 260 263 266 268 270 271 273 274 276 277
206 209 213 216 218 220 223 225 226 227 230 231 232 234 236 239 241 243 244 244 246 249 251 253 255 254 253 252 253 254 255 256 259 262 265 268 270 272 274 275 276 277 278 279
207 209 212 213 215 216 217 220 223 226 232 233 231 232 234 236 241 244 242 241 242 245 249 250 252 254 254 255 255 255 256 259 262 265 268 271 274 275 275 277 278 279 280 282
205 207 209 210 212 214 217 221 223 226 227 227 227 228 231 234 239 241 242 242 243 247 249 251 254 255 255 257 257 257 259 262 266 269 271 274 277 277 278 279 280 282 283 283
200 202 204 206 208 210 214 217 219 221 223 223 223 224 226 229 233 237 241 243 245 248 250 253 254 255 257 260 261 262 263 266 269 270 273 275 277 278 279 281 282 282 283 284
192 197 199 201 202 204 206 211 213 214 216 218 220 222 224 228 232 237 240 243 246 250 252 253 255 258 261 265 267 266 266 268 269 271 273 276 278 280 282 284 284 284 286 287
191 193 194 196 197 198 202 207 210 210 210 212 217 220 224 229 232 237 240 243 247 253 259 258 259 261 263 265 266 267 269 271 273 274 276 278 281 283 284 285 286 287 288 290
188 188 191 193 194 196 199 202 205 205 207 213 217 222 227 232 236 241 247 252 255 259 262 264 264 266 268 269 271 272 274 277 278 279 280 282 284 286 288 289 290 291 292 294
179 180 183 188 192 195 198 201 204 207 211 216 222 228 232 236 243 248 252 256 260 263 265 267 269 274 276 278 277 279 280 282 283 284 285 287 288 290 291 292 293 293 294 295
174 177 180 183 187 192 199 202 206 210 214 219 226 233 240 245 251 254 256 259 263 265 266 269 271 274 277 280 283 286 289 290 290 290 291 292 293 293 294 294 294 294 295 296
178 180 182 186 190 195 200 204 206 210 216 224 231 238 243 248 254 259 263 265 268 271 275 278 281 285 289 291 293 293 293 294 295 295 295 296 296 296 296 296 297 297 297 299
Height
5772 5776 5780 5784 5788 5792 5795 5800 5804 5807 5808 5809 5809 5810 5810 5811 5812 5812 5813 5814 5815 5816 5817 5819 5820 5822 5823 5824 5826 5827 5828 5830 5832 5834 5835 5837 5839 5840 5842 5843 5845 5846 5847 5849
5766 5770 5775 5779 5782 5786 5790 5794 5798 5801 5803 5804 5804 5805 5806 5807 5808 5808 5809 5810 5811 5812 5813 5815 5816 5817 5819 5820 5821 5823 5824 5826 5828 5830 5831 5833 5835 5837 5839 5840 5841 5842 5844 5845
5761 5765 5769 5773 5777 5781 5785 5789 5792 5795 5798 5799 5800 5801 5802 5803 5804 5804 5805 5806 5807 5808 5809 5811 5812 5813 5814 5816 5817 5818 5820 5822 5824 5825 5827 5829 5831 5833 5835 5836 5837 5839 5840 5841
5756 5760 5763 5769 5771 5776 5779 5783 5786 5789 5791 5794 5795 5797 5798 5799 5800 5800 5801 5802 5803 5804 5805 5807 5808 5809 5810 5811 5813 5814 5816 5818 5819 5821 5823 5825 5826 5829 5830 5832 5833 5835 5836 5837
5750 5754 5758 5763 5766 5770 5774 5777 5781 5783 5786 5789 5790 5792 5794 5795 5796 5797 5798 5798 5799 5800 5802 5803 5804 5805 5806 5807 5809 5810 5812 5814 5815 5817 5818 5820 5822 5824 5826 5827 5829 5830 5832 5833
5744 5749 5753 5758 5762 5765 5770 5772 5775 5778 5781 5784 5786 5788 5790 5790 5792 5793 5794 5795 5796 5797 5798 5799 5800 5801 5802 5803 5805 5806 5808 5809 5811 5813 5814 5816 5818 5819 5821 5823 5824 5825 5826 5828
5738 5743 5747 5752 5756 5761 5765 5768 5770 5773 5776 5779 5781 5783 5785 5786 5787 5788 5790 5791 5792 5793 5794 5795 5796 5797 5798 5799 5801 5802 5803 5805 5807 5809 5810 5812 5813 5815 5816 5818 5819 5820 5821 5823
5732 5737 5743 5746 5751 5755 5759 5762 5765 5768 5771 5773 5776 5778 5779 5781 5783 5784 5785 5787 5788 5789 5790 5792 5793 5794 5795 5796 5797 5798 5799 5801 5802 5804 5806 5807 5809 5810 5812 5813 5814 5815 5816 5817
5727 5732 5736 5741 5745 5749 5753 5756 5759 5762 5765 5768 5770 5772 5774 5776 5778 5779 5781 5782 5784 5785 5786 5788 5789 5790 5791 5792 5793 5794 5796 5797 5798 5800 5802 5803 5804 5806 5807 5808 5809 5810 5811 5812
5721 5725 5730 5735 5739 5744 5747 5751 5754 5757 5760 5762 5764 5767 5769 5771 5773 5774 5776 5778 5779 5781 5782 5783 5784 5785 5787 5787 5788 5790 5791 5793 5794 5795 5797 5798 5799 5800 5802 5803 5804 5805 5805 5806
5715 5720 5725 5729 5734 5738 5742 5745 5748 5751 5754 5757 5759 5761 5763 5765 5767 5769 5771 5773 5774 5776 5777 5779 5780 5780 5782 5782 5783 5785 5786 5787 5789 5790 5792 5793 5794 5795 5796 5797 5798 5799 5799 5799
5710 5715 5720 5724 5728 5732 5736 5739 5743 5746 5749 5751 5754 5756 5758 5760 5761 5763 5765 5767 5769 5770 5772 5773 5774 5775 5776 5778 5779 5780 5781 5783 5784 5785 5786 5788 5789 5790 5790 5792 5792 5792 5792 5793
5705 5710 5714 5719 5723 5726 5730 5734 5737 5740 5743 5746 5748 5750 5752 5754 5756 5758 5760 5762 5763 5765 5766 5767 5768 5770 5771 5772 5773 5775 5776 5777 5779 5780 5781 5782 5783 5784 5784 5785 5785 5786 5786 5786
5699 5704 5709 5713 5717 5721 5724 5728 5731 5734 5737 5740 5742 5744 5747 5749 5751 5752 5754 5756 5758 5759 5760 5761 5762 5764 5765 5766 5768 5769 5770 5772 5773 5774 5775 5776 5777 5777 5778 5778 5778 5778 5778 5778
5694 5699 5704 5708 5712 5716 5719 5722 5726 5729 5731 5734 5737 5739 5741 5743 5745 5747 5749 5750 5752 5753 5754 5755 5756 5758 5759 5760 5762 5763 5765 5766 5767 5768 5769 5770 5771 5771 5771 5771 5771 5770 5770 5769
5689 5693 5698 5702 5707 5710 5714 5717 5720 5723 5726 5728 5731 5733 5736 5738 5739 5741 5743 5745 5746 5748 5749 5750 5751 5752 5753 5754 5756 5757 5758 5760 5761 5762 5763 5763 5764 5764 5764 5763 5763 5762 5761 5760
5684 5689 5693 5697 5702 5705 5708 5712 5715 5718 5720 5723 5725 5728 5730 5732 5734 5736 5738 5739 5741 5742 5743 5744 5745 5746 5747 5748 5750 5751 5752 5753 5755 5755 5756 5756 5756 5756 5755 5755 5754 5753 5752 5751
5680 5684 5689 5693 5697 5700 5703 5706 5709 5712 5715 5718 5720 5723 5725 5727 5729 5730 5732 5734 5736 5737 5738 5739 5740 5740 5741 5742 5744 5745 5746 5747 5748 5748 5748 5748 5748 5747 5747 5746 5744 5743 5742 5740
5676 5680 5684 5688 5692 5695 5699 5702 5705 5708 5710 5712 5715 5717 5720 5722 5723 5725 5727 5729 5730 5732 5733 5734 5734 5735 5736 5736 5737 5738 5739 5740 5741 5741 5741 5740 5740 5738 5737 5736 5735 5733 5731 5729
5673 5677 5680 5684 5688 5691 5694 5697 5700 5703 5705 5708 5710 5712 5715 5717 5719 5720 5722 5723 5725 5726 5727 5728 5729 5729 5730 5730 5731 5732 5732 5733 5733 5733 5733 5732 5731 5730 5728 5727 5725 5723 5721 5719
5670 5673 5677 5681 5684 5687 5690 5693 5696 5699 5701 5704 5706 5708 5710 5712 5714 5716 5717 5718 5720 5721 5722 5723 5723 5723 5724 5724 5725 5725 5725 5726 5726 5725 5725 5724 5722 5721 5719 5717 5715 5713 5711 5708
5666 5670 5674 5677 5681 5684 5687 5690 5693 5696 5698 5700 5703 5705 5707 5708 5710 5711 5713 5714 5715 5716 5717 5717 5717 5717 5718 5718 5718 5718 5718 5718 5718 5717 5716 5715 5714 5712 5710 5708 5706 5703 5701 5698
5664 5668 5672 5675 5679 5682 5685 5688 5691 5693 5695 5698 5700 5702 5703 5705 5707 5708 5709 5710 5711 5711 5712 5712 5712 5712 5712 5713 5712 5712 5711 5711 5710 5709 5708 5707 5705 5703 5701 5699 5696 5694 5691 5688
5662 5666 5670 5673 5677 5680 5683 5686 5688 5691 5693 5695 5697 5698 5700 5702 5703 5704 5705 5706 5707 5707 5707 5707 5707 5707 5707 5707 5706 5705 5704 5704 5702 5701 5700 5698 5696 5694 5692 5689 5687 5684 5681 5678
5661 5664 5668 5672 5675 5679 5681 5684 5686 5689 5691 5692 5694 5696 5697 5698 5699 5700 5701 5702 5702 5702 5702 5702 5702 5702 5701 5700 5699 5698 5697 5696 5695 5693 5692 5690 5688 5685 5683 5680 5677 5674 5671 5667
5661 5665 5668 5671 5674 5677 5680 5682 5685 5687 5689 5690 5692 5693 5694 5695 5695 5696 5697 5697 5697 5697 5697 5697 5696 5696 5695 5694 5693 5692 5691 5689 5688 5686 5684 5682 5679 5677 5674 5671 5667 5664 5661 5657
5662 5665 5668 5671 5673 5676 5679 5681 5683 5685 5687 5688 5689 5690 5691 5691 5692 5692 5693 5693 5693 5693 5692 5692 5691 5690 5689 5688 5687 5685 5684 5682 5680 5678 5675 5673 5670 5668 5665 5661 5658 5654 5651 5647